| Shipment Reliability and Frequency | Volume of Goods |
|---|---|
| Avg. Shipments per Month: 8.83 | Average TEU per month: 13.50 |
| Active Months: 12 | Average TEU per Shipment: 1.53 |
| Shipment Frequency Std. Dev.: 1.59 |
| HS Code | Shipments |
|---|---|
| 841581 Air conditioning machines; containing a motor driven fan, other than window or wall types, incorporating a refrigerating unit and a valve for reversal of the cooling/heat cycle (reversible heat pumps) | 162 shipments |
| 903210 Regulating or controlling instruments and apparatus; automatic type, thermostats | 161 shipments |
| 848190 Taps, cocks, valves and similar appliances; parts thereof | 49 shipments |
| 841581.0 Air conditioning machines; comprising a motor driven fan and elements for changing the temperature and humidity, including those machines in which the humidity cannot be separately regulated | 38 shipments |
| 960860 Pens; ball-point, refills comprising the ball point and ink-reservoir | 30 shipments |
| 903210.0 Regulating or controlling instruments and apparatus; automatic type | 23 shipments |
| 848180 Taps, cocks, valves and similar appliances; for pipes, boiler shells, tanks, vats or the like, including thermostatically controlled valves | 11 shipments |
| 270730 Oils and products of the distillation of high temperature coal tar; xylol (xylenes) | 5 shipments |
| 741220 Copper; tube or pipe fittings (e.g. couplings, elbows, sleeves) of copper alloys | 5 shipments |
| 845490 Machines; parts of converters, ladles, ingot moulds and casting machines, of a kind used in metallurgy or in metal foundries | 1 shipments |
| 851490 Furnaces, ovens and heating equipment; parts of the industrial or laboratory equipment of heading no. 8514 | 1 shipments |
| 901010.0 Photographic (including cinematographic) laboratory apparatus and equipment, n.e.c. in chapter 90; negatoscopes; projection screens | 1 shipments |
| Arrival Date | Bill Of Lading | Consignee | Weight | HS Code | Description |
|---|---|---|---|---|---|
| 2026-03-30 | KILVKOUSA2603021 | NATIONAL REFRIGERATION PRODUCTS DIV | 7958.0 kg | 903210.0 | REFRIGERATION BALL BALVE FITTING |
| 2026-03-26 | DSVFRAF0183153 | PARKER HANNIFIN NAM C/O CASS INFORM | 23851.0 kg | 903210.0 | REFRIGERATION BALL VALVE REFRIGERATION BALL VALVE |
| 2026-03-24 | EXDO6430413634 | RESIDEO LLC | 3127.0 kg | 841581.0 | VALVE PART HTS: |
| 2026-03-17 | CHSLSEL2602070 | JB INDUSTRIES INC | 5299.0 kg | 903210.0 | REFRIGERATION BALL VALVE |
| 2026-03-17 | DSVFRAF0188405 | SPORLAN VALVE PLANT | 101.0 kg | 903210.0 | REFRIGERATION BALL VALVE |
| 2026-03-13 | DSVFSEL0531923 | EMERSON AUTOMATION SOLUTIONS | 2201.0 kg | 841581.0 | VALVE PART |
| 2026-03-13 | DSVFSEL0531830 | FROMEX REGULATOR TECHNOLOGIES C/O | 1546.0 kg | 841581.0 | VALVE PART |
| 2026-03-13 | DSVFSEL0533288 | FROMEX REGULATOR TECHNOLOGIES C/O | 79.0 kg | 841581.0 | VALVE PART |
| 2026-03-13 | DSVFSEL0534789 | EMERSON AUTOMATION SOLUTIONS | 1355.0 kg | 841581.0 | VALVE PART |
| 2026-03-11 | WBLCJFCKR57292 | HENRY TECHNOLOGIES INC | 1397.0 kg | 903210.0 | REFRIGERATION BALL VALVE |
| 2026-02-26 | DSVFSEL0531231 | FROMEX REGULATOR TECHNOLOGIES C/O | 783.0 kg | 841581.0 | VALVE PART |
| 2026-02-26 | DSVFRAF0160309 | SPORLAN VALVE PLANT | 881.0 kg | 841581.0 | VALVE PART |
| 2026-02-23 | EXDO6430412379 | RESIDEO LLC | 2532.0 kg | 841581.0 | VALVE PART HTS: |
| 2026-02-18 | DSVFRAF0142759 | PARKER HANNIFIN NAM C/O CASS INFORM | 21858.0 kg | 841581.0 | VALVE PART VALVE PART |
| 2026-02-12 | CHSLSEL2601248 | JB INDUSTRIES INC | 437.0 kg | 903210.0 | REFRIGERATION BALL VALVE |
| 2026-02-09 | WBLCJFCKR56932 | HENRY TECHNOLOGIES INC | 1116.0 kg | 903210.0 | REFRIGERATION BALL VALVE |
| 2026-02-04 | DSVFRAF0137182 | SPORLAN VALVE PLANT | 714.0 kg | 903210.0 | REFRIGERATION BALL VALVE |
| 2026-02-04 | DSVFSEL0530027 | FROMEX REGULATOR TECHNOLOGIES C/O | 1857.0 kg | 841581.0 | VALVE PART |
| 2026-01-30 | KILVKOUSA2601001 | NATIONAL REFRIGERATION PRODUCTS DIV | 16026.0 kg | 903210.0 | REFRIGERATION BALL VALVE REFRIGERATION BALL VALVE |
| 2026-01-28 | EXDO6430411090 | RESIDEO LLC | 2591.0 kg | 841581.0 | VALVE PART HTS: |
| 2026-01-21 | DSVFSEL0528060 | FROMEX REGULATOR TECHNOLOGIES C/O | 2028.0 kg | 841581.0 | VALVE PART |
| 2026-01-21 | DSVFRAF0121232 | SPORLAN VALVE PLANT | 87.0 kg | 841581.0 | VALVE PART |
| 2026-01-14 | DSVFSEL0527803 | EMERSON AUTOMATION SOLUTIONS | 866.0 kg | 841581.0 | VALVE PART |
| 2026-01-12 | EXDO6420090320 | RESIDEO LLC | 4745.0 kg | 841581.0 | VALVE PART HTS: |
| 2026-01-07 | DSVFSEL0526672 | FROMEX REGULATOR TECHNOLOGIES C/O | 3341.0 kg | 841581.0 | VALVE PART |
| 2026-01-06 | SHPT23610601 | REFTEKK | 2580.0 kg | 903210.0 | REFRIGERATION BALL VALVE HS CODE |
| 2025-12-31 | KILVKOUSA2512011 | NATIONAL REFRIGERATION PRODUCTS DIV | 41676.0 kg | 903210.0 | REFRIGERATION BALL VALVE REFRIGERATION BALL VALVE |
| 2025-12-30 | DSVFRAF0102234 | PARKER HANNIFIN NAM C/O CASS INFORM | 5926.0 kg | 903210.0 | REFRIGERATION BALL VALVE |
| 2025-12-29 | DSVFSEL0524013 | SPORLAN VALVE PLANT | 10798.0 kg | 841581.0 | VALVE PART |
| 2025-12-20 | EXDO6420090073 | RESIDEO LLC | 4481.0 kg | 841581.0 | VALVE PART HTS: |
| 2025-12-17 | DSVFRAF0086538 | SPORLAN VALVE PLANT | 81.0 kg | 901010.0 | LAMINATING ROLL FILM |
| 2025-12-17 | DSVFSEL0524795 | FROMEX REGULATOR TECHNOLOGIES C/O | 2197.0 kg | 841581.0 | VALVE PART |
| 2025-12-02 | DSVFSEL0523406 | FROMEX REGULATOR TECHNOLOGIES C/O | 1914.0 kg | 841581.0 | VALVE PART |
| 2025-11-28 | DSVFSEL0521311 | SPORLAN VALVE | 22637.0 kg | 903210.0 | REFRIGERATION BALL BALVE REFRIGERATION BALL BALVE |
| 2025-11-20 | EXDO6420089717 | RESIDEO LLC | 6267.0 kg | 841581.0 | VALVE PART HTS: |
| 2025-11-19 | DSVFSEL0521194 | FROMEX REGULATOR TECHNOLOGIES C/O | 1787.0 kg | 841581.0 | VALVE PART |
| 2025-11-19 | DSVFRAF0052872 | SPORLAN VALVE PLANT | 174.0 kg | 841581.0 | VALVE PART |
| 2025-11-17 | WBLCJFCKR56342 | HENRY TECHNOLOGIES INC | 549.0 kg | 903210.0 | REFRIGERATION BALL VALVE |
| 2025-11-13 | DSVFRAF0044859 | SPORLAN VALVE PLANT | 1897.0 kg | 903210.0 | REFRIGERATION BALL VALVE |
| 2025-11-13 | DSVFSEL0520182 | FROMEX REGULATOR TECHNOLOGIES C/O | 2500.0 kg | 841581.0 | VALVE PART |
| 2025-11-08 | EXDO6420089375 | RESIDEO LLC | 971.0 kg | 841581.0 | VALVE PART HTS: |
| 2025-10-28 | DSVFSEL0518418 | SPORLAN VALVE PLANT | 20253.0 kg | 903210.0 | REFRIGERATION BALL BALVE REFRIGERATION BALL BALVE |
| 2025-10-28 | DSVFSEL0519831 | EMERSON AUTOMATION SOLUTIONS | 2160.0 kg | 841581.0 | VALVE PART |
| 2025-10-22 | WBLCJFCKR56161 | HENRY TECHNOLOGIES INC | 1792.0 kg | 903210.0 | REFRIGERATION BALL VALVE |
| 2025-10-21 | DSVFSEL0518409 | SPORLAN VALVE PLANT | 16491.0 kg | 903210.0 | REFRIGERATION BALL BALVE |
| 2025-10-21 | DSVFRAF0033453 | SPORLAN VALVE PLANT | 61.0 kg | 841581.0 | VALVE PART |
| 2025-10-15 | EXDO6420089281 | ADEMCO INC | 5096.0 kg | 841581.0 | VALVE PART HTS: |
| 2025-10-14 | DSVFSEL0519085 | FROMEX REGULATOR TECHNOLOGIES C/O | 2150.0 kg | 841581.0 | VALVE PART |
| 2025-10-07 | DSVFSEL0517971 | FROMEX REGULATOR TECHNOLOGIES C/O | 2076.0 kg | 841581.0 | VALVE PART |
| 2025-10-07 | DSVFRAF0032139 | SPORLAN VALVE PLANT | 428.0 kg | 841581.0 | VALVE PART |